Regional Weather Roundup
Issued by NWS

Home | Current Version | Previous Version | Graphics & Text | Print | Product List | Glossary On
Versions: 1 2 3 4 5 6 7 8 9 10 11 12 13 14 15 16 17 18 19 20 21 22 23 24 25 26 27 28 29 30 31 32 33 34 35 36 37 38 39 40 41 42 43 44 45 46 47 48 49 50
000
ASUS43 KDTX 311510
RWRMI
MICHIGAN HOURLY REGIONAL WEATHER ROUNDUP
NATIONAL WEATHER SERVICE DETROIT/PONTIAC MI
1100 AM EDT FRI JUL 31 2015

NOTE: "FAIR" INDICATES FEW OR NO CLOUDS BELOW 12,000 FEET WITH NO
SIGNIFICANT WEATHER AND/OR OBSTRUCTION TO VISIBILITY.

MIZ047>049-052>055-059>063-066>070-074>076-081>083-311600-
SOUTHEAST LOWER MICHIGAN

CITY           SKY/WX    TMP DP  RH WIND       PRES   REMARKS
ADRIAN         SUNNY     79  63  57 W8        29.98F
ALMA           SUNNY     79  62  56 W10G16    29.91F
ANN ARBOR      SUNNY     80  62  54 W13       29.95F
BAD AXE        SUNNY     75  62  64 W12       29.88F
CARO           SUNNY     78  63  59 SW12      29.89F
DETROIT CITY   SUNNY     81  58  45 W7        29.93F
DETROIT        MOSUNNY   82  60  47 SW13      29.95F
FLINT          SUNNY     82  61  48 W10       29.92F
GROSSE ILE     SUNNY     82  59  44 W9        29.94S
HILLSDALE      SUNNY     80  60  51 W9G16     29.99F
HOWELL         SUNNY     81  59  45 W10       29.94F

CITY           SKY/WX    TMP DP  RH WIND       PRES   REMARKS
JACKSON        SUNNY     79  62  56 SW9       29.96F
LAMBERTVILLE   SUNNY     81  62  52 W6        29.97F
LANSING        SUNNY     80  61  52 W12       29.95F
LAPEER         FAIR      79  60  52 W9        29.91F
MASON          SUNNY     77  61  56 W8        29.95F
MONROE         SUNNY     81  62  53 W9        29.95F
MT. CLEMENS    SUNNY     83  60  46 W9        29.90F
PONTIAC        MOSUNNY   79  60  52 SW13      29.93F
PORT HOPE        N/A     78  63  59 W8        29.84F
PORT HURON     SUNNY     79  63  57 W3        29.91F
TRI CITIES     SUNNY     80  63  55 W12       29.90F
MIDLAND        FAIR      81  60  50 W9        29.88F
TROY           SUNNY     82  57  42 W12       29.95S
SAGINAW HB     SUNNY     79  63  57 W8        29.89S
$$
MIZ043>046-050>051-056>058-064>065-071>073-077>080-311600-
SOUTHWEST LOWER MICHIGAN

CITY           SKY/WX    TMP DP  RH WIND       PRES   REMARKS
BATTLE CREEK   SUNNY     80  62  54 W9        29.98S
BENTON HARBOR  PTSUNNY   78  63  59 W15G23    29.99F
BIG RAPIDS     SUNNY     77  60  54 W13       29.91F
COLDWATER      SUNNY     78  62  57 W10       29.98F
FREMONT        FAIR      78  58  49 W12G21    29.93S
HOLLAND        SUNNY     78  62  57 W12       29.97S
GRAND RAPIDS   MOSUNNY   81  60  48 W15       29.94F
IONIA          FAIR      80  62  54 W14       29.93F
KALAMAZOO      MOSUNNY   80  62  54 W9        29.98F
LUDINGTON      SUNNY     76  64  67 NW7       29.91F
MARSHALL       SUNNY     80  63  56 SW7       29.97S
MOUNT PLEASANT MOSUNNY   82  60  46 W9        29.89F
MUSKEGON       PTSUNNY   75  61  61 W15G21    29.94S
SOUTH HAVEN    SUNNY     77  63  61 W12       29.97F
$$
MIZ016>042-311600-
NORTHERN LOWER MICHIGAN

CITY           SKY/WX    TMP DP  RH WIND       PRES   REMARKS
ALPENA         SUNNY     79  59  50 SW8G16    29.82F
BEAVER ISLAND  MOSUNNY   73  58  60 W10G16    29.83S
BELLAIRE       PTSUNNY   76  59  55 NW6       29.85F
CADILLAC       SUNNY     76  60  56 W13       29.89F
CHARLEVOIX     SUNNY     74  62  66 W12G21    29.87S
FRANKFORT      SUNNY     74  63  69 W7G16     29.88S
GAYLORD        MOSUNNY   74  60  61 W13       29.86S
GRAYLING       SUNNY     76  59  55 SW7       29.87S
HARBOR SPRINGS CLOUDY    70  61  72 SW7       29.83S
HOUGHTON LAKE  SUNNY     76  60  57 W10       29.88F
MANISTEE       SUNNY     73  57  56 W14G20    29.90F
OSCODA         SUNNY     82  56  41 W12       29.82F
PELLSTON       MOSUNNY   76  58  53 NW13      29.82F
ROGERS CITY    SUNNY     78  60  54 W7        29.81F
TRAVERSE CITY  MOSUNNY   79  57  46 W12       29.84F
$$
MIZ007>008-015-311600-
EASTERN UPPER MICHIGAN

CITY           SKY/WX    TMP DP  RH WIND       PRES   REMARKS
KINROSS        MOSUNNY   72  55  56 W10       29.80S
MACKINAC ISLAN   N/A     70  59  68 SW8       29.81S
S. S. MARIE    MOSUNNY   67  56  67 W9        29.80
MUNISING         N/A     71  55  56 NW20G26   29.84R
$$
MIZ004>006-011>014-085-311600-
CENTRAL UPPER MICHIGAN

CITY           SKY/WX    TMP DP  RH WIND       PRES   REMARKS
MANISTIQUE     SUNNY     77  54  44 NW13G20   29.82S
ESCANABA       SUNNY     75  55  50 NW14G21   29.83F
MENOMINEE      MOSUNNY   73  57  56 NW9G16    29.88R
SAWYER-GWINN   MOSUNNY   73  52  46 W18G24    29.86R
$$
MIZ001>003-009>011-084-311600-
WESTERN UPPER MICHIGAN

CITY           SKY/WX    TMP DP  RH WIND       PRES   REMARKS
IRON MOUNTAIN  SUNNY     74  55  51 NW17G25   29.88S
HOUGHTON       SUNNY     67  55  65 NW14      29.86S
COPPER HARBOR    N/A     68  54  60 N13G23    29.81F
IRONWOOD       SUNNY     66  57  72 NW14      29.92S
$$

ABBREVIATIONS USED IN REMARKS
   TC - TEMPERATURE IN CELSIUS
  WCI - WIND CHILL INDEX
   HX - HEAT INDEX
  VSB - VISIBILITY




USA.gov is the U.S. government's official web portal to all federal, state and local government web resources and services.